www.pogodaiklimat.ru

Погода и климат >> Архив погоды >> Французская Полинезия >> Atuona


ПОГОДА в Atuona

  • Прогноз погоды в Atuona
  • Монитор погоды в Atuona
  • Климат города

АРХИВ ПОГОДЫ в Atuona

Время (UTC), дата Ветер
(напр.,м/с)
 
Видим.   Явления Облачность Т
(С)
Тd
(С)
f
(%)
Тe
(С)
Тes
(С)
Комфортность P
(гПа)
Po
(гПа)
Тmin
(С)
Tmax
(С)
R
(мм)
R24
(мм)
S
(см)
22 17.05 В 3 н/о н/о +29.1 +24.2 75 +41 +41 опасность
перегрева
1010.8 1004.8
23 17.05 В 6
{10}
30 км 6/3 630 м
[Cu med, cong Ci fib]
+29.6 +24.2 73 +41 +45 опасность
перегрева
1009.8 1003.9
00 18.05 В 4 30 км 8/4 630 м
[Cu med, cong Ci sp]
+29.1 +24.0 74 +40 +44 очень
душно
1009.4 1003.4 +25.9
01 18.05 В 3 н/о н/о +28.3 +23.9 77 +39 +39 очень
душно
1009.1 1003.1
02 18.05 В 1 н/о н/о +28.0 +23.8 78 +39 +39 очень
душно
1009.3 1003.3
03 18.05 В 4 30 км 8/4 630 м
[Cu med, cong Ci sp]
+29.1 +24.0 74 +40 +40 очень
душно
1009.4 1003.4 +25.9
04 18.05 В 1 н/о н/о +26.7 +23.4 82 +36 +36 очень
душно
1010.8 1004.8
05 18.05 В 3
{8}
н/о н/о +27.2 +23.4 80 +37 +37 очень
душно
1011.5 1005.5
06 18.05 В 2 н/о н/о +27.7 +23.1 76 +37 +37 очень
душно
1011.8 1005.8
07 18.05 В 3 н/о н/о +27.6 +23.2 77 +37 +37 очень
душно
1011.9 1005.9
08 18.05 В 2 н/о н/о +27.5 +23.1 77 +37 +37 очень
душно
1011.8 1005.8
09 18.05 В 3 н/о н/о +27.5 +22.9 76 +37 +37 очень
душно
1011.4 1005.4
10 18.05 В 2 н/о н/о +27.3 +22.3 74 +36 +36 очень
душно
1011.1 1005.1
11 18.05 В 1 н/о н/о +26.8 +21.8 74 +34 +34 очень
душно
1010.7 1004.7
12 18.05 С 1 н/о н/о +26.0 +22.7 82 +34 +34 очень
душно
1010.2 1004.2 +30.0 +30.0
13 18.05 СЗ 1 н/о н/о +24.8 +22.3 86 +32 +32 очень
душно
1010.2 1004.1
14 18.05 С 1 н/о н/о +25.0 +22.7 87 +33 +33 очень
душно
1010.3 1004.3
15 18.05 СВ 1
{2}
30 км 5/5 630 м
[Cu med, cong]
+24.9 +23.0 89 +33 +33 очень
душно
1010.7 1004.7
16 18.05 штиль 0
{2}
30 км 9/9 630 м
[Cu Sc]
+24.9 +22.8 88 +33 +33 очень
душно
1011.3 1005.2
17 18.05 СЗ 2
{3}
30 км 9/9 700 м
[Cu Sc]
+25.8 +23.1 85 +34 +35 очень
душно
1011.6 1005.6
18 18.05 Ю 1
{3}
30 км 10/10 750 м
[Cu Sc]
+27.4 +23.0 77 +37 +37 очень
душно
1012.3 1006.3
19 18.05 СЗ 1
{10}
н/о н/о +27.8 +24.4 82 +39 +39 очень
душно
1012.5 1006.5 0.2
20 18.05 ЮВ 5
{14}
1500 м ливневой дождь 10/10 330 м
[Cu med, cong]
+27.2 +24.5 85 +38 +38 очень
душно
1012.5 1006.5 1
21 18.05 ЮВ 3
{8}
4000 м в посл. час ливневой дождь 10/10 90 м
[Frnb]
+26.1 +24.9 93 +37 +37 очень
душно
1011.7 1005.7 6
22 18.05 В 1
{7}
4000 м дождь 10/10 150 м
[Frnb]
+26.3 +25.3 94 +38 +38 очень
душно
1010.7 1004.7 3
23 18.05 СЗ 3
{4}
8000 м дождь 9/9 400 м
[Cu med, cong]
+27.1 +25.9 93 +40 +42 очень
душно
1009.6 1003.6 2
00 19.05 З 3
{10}
7000 м в посл. час дождь {ливн. осадки} 10/10 400 м
[Cu med, cong]
+26.8 +25.2 91 +39 +39 очень
душно
1009.2 1003.2 +24.8 7
01 19.05 СЗ 2
{5}
н/о н/о +26.3 +25.6 96 +39 +39 очень
душно
1009.3 1003.3 7
02 19.05 ЮВ 2
{9}
40 км 8/6 450 м
[Cu Sc Ci sp]
+26.5 +24.3 88 +37 +38 очень
душно
1009.8 1003.8
03 19.05 В 2 н/о н/о +26.3 +24.0 87 +36 +36 очень
душно
1010.7 1004.7 7
04 19.05 СЗ 1 н/о н/о +26.4 +24.4 89 +37 +37 очень
душно
1011.2 1005.2
05 19.05 В 3 н/о н/о +26.9 +24.6 87 +38 +38 очень
душно
1011.8 1005.8
06 19.05 В 1 н/о н/о +27.1 +24.6 86 +38 +38 очень
душно
1011.8 1005.8
07 19.05 В 1 н/о н/о +26.1 +24.5 91 +37 +37 очень
душно
1012.2 1006.2 1
08 19.05 СВ 1 н/о н/о +25.7 +24.8 95 +36 +36 очень
душно
1011.6 1005.6 1
09 19.05 СЗ 1 н/о н/о +25.1 +24.1 94 +35 +35 очень
душно
1011.1 1005.1 4
10 19.05 СЗ 2 н/о н/о +24.9 +24.4 97 +35 +35 очень
душно
1010.5 1004.5 19
11 19.05 В 4 н/о н/о +25.4 +24.7 96 +36 +36 очень
душно
1010.1 1004.1 4
12 19.05 СЗ 2 н/о н/о +25.0 +24.5 97 +35 +35 очень
душно
1009.9 1003.9 +28.7 +28.7 44
13 19.05 В 4 н/о н/о +25.8 +24.9 95 +37 +37 очень
душно
1009.9 1003.9
14 19.05 ЮВ 5 н/о н/о +25.5 +24.8 96 +36 +36 очень
душно
1010.0 1004.0 1
15 19.05 В 7
{13}
20 км 9/6 400 м
[Cu Sc As op]
+25.7 +25.0 96 +37 +37 очень
душно
1010.5 1004.5 5
16 19.05 З 2
{12}
20 км в посл. час ливневой дождь 9/6 400 м
[Cu Sc As op]
+25.2 +23.8 92 +34 +35 очень
душно
1011.0 1005.0 0.6
17 19.05 СЗ 2
{4}
20 км 10/10 400 м
[Cu med, cong]
+25.1 +24.1 94 +35 +35 очень
душно
1011.6 1005.6
18 19.05 СЗ 2
{4}
4000 м слабый ливневой дождь 10/10 400 м
[Cu med, cong]
+25.0 +24.1 95 +34 +34 очень
душно
1012.0 1005.9 1
19 19.05 СЗ 2
{5}
7000 м в посл. час ливневой дождь 10/10 150 м
[Cu med, cong]
+25.3 +24.6 96 +36 +36 очень
душно
1012.3 1006.3 0.8
20 19.05 С 2
{6}
н/о н/о +25.9 +24.7 93 +37 +37 очень
душно
1011.2 1005.2 0.0
21 19.05 СЗ 2
{4}
20 км слабый дождь {ливн. осадки} 10/10 450 м
[Cu med, cong]
+25.7 +24.7 94 +36 +36 очень
душно
1010.9 1004.9 2
22 19.05 СВ 3
{8}
15 км слабый дождь 10/10 330 м
[Cb calv]
+25.7 +23.7 89 +35 +35 очень
душно
1010.4 1004.4 0.6
23 19.05 З 1
{4}
15 км гроза, ливневой дождь 10/10 330 м
[Cb cap]
+26.2 +25.0 93 +37 +37 очень
душно
1009.7 1003.7 0.4
00 20.05 З 1 н/о {гроза, ливн. осадки} н/о +26.1 +25.2 95 +38 +38 очень
душно
1009.5 1003.5 +24.9 1
01 20.05 С 1
{6}
15 км слабый дождь 10/5 330 м
[Cb cap As op]
+25.8 +23.7 88 +35 +36 очень
душно
1008.4 1002.4 0.0
02 20.05 СЗ 3
{4}
6000 м слабый дождь 10/10 400 м
[Cu med, cong]
+25.7 +24.1 91 +36 +36 очень
душно
1009.1 1003.1 0.0
03 20.05 С 1 н/о н/о +25.0 +23.8 93 +34 +34 очень
душно
1008.9 1002.9 4
04 20.05 СЗ 1 н/о н/о +25.0 +24.0 94 +34 +34 очень
душно
1009.7 1003.7
05 20.05 С 1 н/о н/о +25.2 +24.3 95 +35 +35 очень
душно
1010.2 1004.2 1
06 20.05 В 1 н/о н/о +25.3 +24.3 94 +35 +35 очень
душно
1010.8 1004.8 1
07 20.05 В 1 н/о н/о +25.2 +24.3 95 +35 +35 очень
душно
1010.8 1004.8 0.6
08 20.05 С 1 н/о н/о +25.6 +24.2 92 +35 +35 очень
душно
1010.8 1004.8
09 20.05 СВ 1 н/о н/о +25.8 +23.8 89 +35 +35 очень
душно
1010.6 1004.6 0.6
10 20.05 С 1 н/о н/о +25.1 +23.9 93 +34 +34 очень
душно
1010.3 1004.3
11 20.05 СЗ 1 н/о н/о +25.0 +23.6 92 +34 +34 очень
душно
1009.8 1003.8
12 20.05 штиль 0 н/о н/о +24.6 +23.2 92 +33 +33 очень
душно
1009.4 1003.4 +26.3 +26.3 0.6
13 20.05 В 2 н/о н/о +24.9 +23.0 89 +33 +33 очень
душно
1009.3 1003.3 0.2
14 20.05 С 1 н/о н/о +24.6 +22.5 88 +32 +32 очень
душно
1009.7 1003.6
15 20.05 СЗ 2
{4}
40 км {ливн. осадки, дождь} 4/4 630 м
[Cu Sc]
+24.4 +22.5 89 +32 +32 очень
душно
1010.3 1004.2 0.2
16 20.05 С 1
{4}
40 км 4/4 630 м
[Cu Sc Ci fib]
+24.7 +22.2 86 +32 +32 очень
душно
1011.0 1004.9
17 20.05 СВ 1
{4}
40 км 4/4 630 м
[Cu Sc Ci fib]
+26.6 +22.7 79 +35 +37 очень
душно
1011.7 1005.7
18 20.05 СВ 1 н/о н/о +28.3 +23.4 75 +38 +38 очень
душно
1012.0 1006.0
19 20.05 В 5
{8}
40 км 3/3 750 м
[Cu med, cong Ci fib]
+29.3 +22.3 66 +38 +43 очень
душно
1011.9 1005.9
20 20.05 В 4
{8}
40 км 3/3 750 м
[Cu med, cong Ci fib]
+29.1 +22.6 68 +38 +45 очень
душно
1011.6 1005.6
21 20.05 В 5
{8}
40 км 3/3 750 м
[Cu med, cong Ci fib]
+29.6 +22.8 67 +39 +45 очень
душно
1010.8 1004.8
22 20.05 В 5
{10}
н/о н/о +29.3 +22.8 68 +39 +39 очень
душно
1009.6 1003.6
23 20.05 В 5
{10}
40 км 3/3 750 м
[Cu med, cong]
+29.0 +22.5 68 +38 +43 очень
душно
1008.9 1002.9
00 21.05 В 7
{12}
50 км 3/3 750 м
[Cu med, cong Ci fib]
+28.5 +22.3 69 +37 +39 очень
душно
1007.9 1001.9 +24.3
01 21.05 В 3 н/о н/о +28.1 +23.0 74 +38 +38 очень
душно
1008.0 1002.0
02 21.05 В 4
{9}
50 км 3/3 750 м
[Cu med, cong Ci fib]
+27.7 +22.9 75 +37 +37 очень
душно
1008.6 1002.6
03 21.05 В 2 н/о н/о +27.7 +22.9 75 +37 +37 очень
душно
1009.4 1003.4
04 21.05 СВ 1 н/о н/о +26.9 +22.7 78 +36 +36 очень
душно
1010.1 1004.1
05 21.05 С 1 н/о н/о +25.8 +23.5 87 +35 +35 очень
душно
1010.9 1004.9
06 21.05 С 1 н/о н/о +25.5 +22.8 85 +34 +34 очень
душно
1011.5 1005.5
07 21.05 СЗ 1 н/о н/о +25.0 +22.7 87 +33 +33 очень
душно
1011.8 1005.7
08 21.05 С 1 н/о н/о +24.4 +21.9 86 +31 +31 очень
душно
1011.3 1005.2
09 21.05 СВ 1 н/о н/о +24.0 +21.7 87 +31 +31 очень
душно
1010.7 1004.6
10 21.05 СЗ 1 н/о н/о +23.9 +21.6 87 +31 +31 очень
душно
1010.1 1004.0
11 21.05 СВ 1 н/о н/о +24.0 +21.7 87 +31 +31 очень
душно
1009.3 1003.2
12 21.05 С 1 н/о н/о +24.3 +22.2 88 +32 +32 очень
душно
1009.0 1002.9 +29.8 +29.8
13 21.05 штиль 0 н/о н/о +25.1 +22.0 83 +32 +32 очень
душно
1008.7 1002.7
14 21.05 С 1 н/о н/о +24.3 +21.2 83 +31 +31 очень
душно
1009.3 1003.2
15 21.05 С 1
{4}
50 км 3/3 750 м
[Cu hum]
+23.7 +21.0 85 +30 +30 очень
душно
1009.8 1003.7
16 21.05 штиль 0
{2}
50 км 3/3 750 м
[Cu hum]
+23.5 +21.0 86 +30 +30 очень
душно
1010.4 1004.3
17 21.05 штиль 0
{3}
50 км 3/3 750 м
[Cu hum Ac lent]
+26.6 +22.2 77 +35 +37 очень
душно
1010.8 1004.8
18 21.05 В 2
{4}
50 км 3/3 750 м
[Cu med, cong Ac lent]
+29.1 +21.6 64 +37 +42 очень
душно
1011.7 1005.7
19 21.05 В 5
{8}
50 км 3/3 750 м
[Cu med, cong]
+29.6 +22.1 64 +38 +43 очень
душно
1011.8 1005.8
21 21.05 В 6
{9}
50 км 3/3 750 м
[Cu med, cong]
+29.8 +22.5 65 +39 +43 очень
душно
1010.4 1004.4
22 21.05 В 3 н/о н/о +30.5 +22.9 64 +40 +40 очень
душно
1009.2 1003.3
23 21.05 В 3 н/о н/о +28.6 +22.4 69 +37 +37 очень
душно
1008.7 1002.7
00 22.05 В 3 н/о н/о +28.0 +21.8 69 +36 +36 очень
душно
1008.4 1002.4 +23.3
02 22.05 В 1
{8}
н/о н/о +27.5 +20.8 67 +34 +34 очень
душно
1008.7 1002.7
01 22.05 В 3 н/о н/о +28.0 +22.0 70 +36 +36 очень
душно
1008.4 1002.4
03 22.05 СЗ 1 н/о н/о +26.2 +21.8 77 +34 +34 очень
душно
1009.5 1003.5
04 22.05 СЗ 1 н/о н/о +24.9 +21.6 82 +32 +32 очень
душно
1010.2 1004.1
05 22.05 СВ 1 н/о н/о +24.4 +21.3 83 +31 +31 очень
душно
1010.9 1004.8
06 22.05 СВ 1 н/о н/о +24.2 +21.5 85 +31 +31 очень
душно
1011.3 1005.2
08 22.05 штиль 0 н/о н/о +23.6 +20.7 84 +29 +29 душно 1011.3 1005.2
07 22.05 штиль 0 н/о н/о +23.8 +20.7 83 +30 +30 очень
душно
1011.6 1005.5
09 22.05 штиль 0 н/о н/о +23.5 +20.6 84 +29 +29 душно 1010.7 1004.6
10 22.05 СВ 1 н/о н/о +23.5 +21.2 87 +30 +30 очень
душно
1010.3 1004.2
11 22.05 З 1 н/о н/о +23.9 +21.0 84 +30 +30 очень
душно
1009.8 1003.7
12 22.05 СЗ 1 н/о н/о +24.0 +21.1 84 +30 +30 очень
душно
1009.7 1003.6 +30.6 +30.6
14 22.05 С 1 н/о н/о +24.1 +21.8 87 +31 +31 очень
душно
1009.9 1003.8
13 22.05 штиль 0 н/о н/о +23.8 +21.3 86 +30 +30 очень
душно
1009.5 1003.4
15 22.05 СВ 1
{4}
30 км 6/6 600 м
[Cu Sc]
+24.3 +22.2 88 +32 +32 очень
душно
1010.5 1004.4
16 22.05 С 1 н/о н/о +24.5 +22.2 87 +32 +32 очень
душно
1011.2 1005.1
17 22.05 С 1
{3}
40 км 5/5 630 м
[Cu med, cong]
+26.7 +23.8 84 +37 +38 очень
душно
1011.9 1005.9
18 22.05 В 2
{5}
40 км 5/5 630 м
[Cu med, cong]
+28.4 +23.3 74 +38 +42 очень
душно
1012.3 1006.3
20 22.05 В 3 н/о н/о +28.1 +22.6 72 +37 +37 очень
душно
1011.5 1005.5
19 22.05 В 2 н/о н/о +28.1 +22.8 73 +37 +37 очень
душно
1012.0 1006.0
21 22.05 ЮВ 3 н/о н/о +27.7 +22.6 74 +37 +37 очень
душно
1010.5 1004.5
22 22.05 В 3 н/о н/о +28.3 +22.5 71 +37 +37 очень
душно
1009.7 1003.7
23 22.05 В 3 н/о н/о +28.5 +22.5 70 +37 +37 очень
душно
1008.9 1002.9
00 23.05 В 5
{7}
30 км 6/6 630 м
[Cu Sc]
+28.2 +22.2 70 +37 +39 очень
душно
1008.3 1002.3 +23.4
02 23.05 ЮВ 1
{6}
30 км 5/5 630 м
[Cu Sc]
+27.7 +23.3 77 +37 +38 очень
душно
1008.4 1002.4
01 23.05 В 2 н/о н/о +27.5 +22.2 73 +36 +36 очень
душно
1008.2 1002.2
03 23.05 С 1 н/о н/о +26.3 +22.8 81 +35 +35 очень
душно
1009.1 1003.1
04 23.05 З 1 н/о н/о +26.0 +22.5 81 +34 +34 очень
душно
1009.9 1003.9
05 23.05 СЗ 1 н/о н/о +25.5 +22.4 83 +33 +33 очень
душно
1010.7 1004.7
06 23.05 СЗ 1 н/о н/о +25.1 +22.2 84 +33 +33 очень
душно
1011.2 1005.1
08 23.05 СЗ 1 н/о н/о +25.1 +22.6 86 +33 +33 очень
душно
1011.6 1005.5
07 23.05 В 1 н/о н/о +25.2 +22.9 87 +33 +33 очень
душно
1011.5 1005.5
09 23.05 СВ 1 н/о н/о +24.9 +22.8 88 +33 +33 очень
душно
1011.2 1005.1
10 23.05 С 1 н/о н/о +25.0 +23.2 90 +33 +33 очень
душно
1010.4 1004.4 0.6
11 23.05 СВ 1 н/о н/о +24.7 +23.1 91 +33 +33 очень
душно
1009.9 1003.9
12 23.05 СВ 1 н/о н/о +24.8 +23.2 91 +33 +33 очень
душно
1009.7 1003.7 +29.1 +29.1 0.6
14 23.05 СЗ 1 н/о н/о +25.2 +23.6 91 +34 +34 очень
душно
1009.7 1003.7
13 23.05 С 1 н/о н/о +25.0 +23.2 90 +33 +33 очень
душно
1009.5 1003.5
15 23.05 С 1
{3}
30 км 6/6 600 м
[Cu Sc]
+25.2 +23.4 90 +34 +34 очень
душно
1010.1 1004.1
16 23.05 штиль 0 н/о н/о +25.3 +23.7 91 +34 +34 очень
душно
1010.6 1004.6
17 23.05 С 1 н/о н/о +25.5 +24.5 94 +36 +36 очень
душно
1011.6 1005.6 0.8
18 23.05 СЗ 1 н/о {ливн. осадки, дождь} н/о +25.8 +24.6 93 +36 +36 очень
душно
1012.1 1006.1 1
20 23.05 Ю 2 н/о {ливн. осадки, дождь} н/о +25.2 +24.3 95 +35 +35 очень
душно
1011.9 1005.9 23
19 23.05 ЮЗ 2 н/о н/о +26.4 +24.1 87 +37 +37 очень
душно
1012.3 1006.3 0.6
21 23.05 В 6
{11}
8000 м в посл. час ливневой дождь 9/9 480 м
[Cu Sc]
+25.7 +23.9 90 +35 +36 очень
душно
1011.3 1005.3 24
22 23.05 В 2 н/о н/о +25.9 +23.9 89 +36 +36 очень
душно
1010.8 1004.8 0.2
23 23.05 В 4
{8}
4000 м осадки на расстоянии 9/9 480 м
[Cu Sc]
+26.2 +23.5 85 +36 +36 очень
душно
1010.1 1004.1
00 24.05 ЮВ 2 н/о {ливн. осадки, дождь} н/о +25.5 +24.6 95 +36 +36 очень
душно
1009.7 1003.7 +24.7 0.4
02 24.05 В 5
{10}
4000 м слабый дождь 10/10 400 м
[Cu med, cong]
+24.7 +24.0 96 +34 +34 очень
душно
1010.5 1004.5 0.4
01 24.05 В 2 н/о н/о +25.3 +23.5 90 +34 +34 очень
душно
1010.1 1004.1
03 24.05 В 3 н/о н/о +24.1 +23.6 97 +33 +33 очень
душно
1011.3 1005.2 3
04 24.05 СВ 1 н/о н/о +24.1 +23.6 97 +33 +33 очень
душно
1012.0 1005.9 3
05 24.05 В 4 н/о н/о +24.7 +24.2 97 +34 +34 очень
душно
1012.5 1006.4 2
06 24.05 В 2 н/о н/о +24.2 +23.3 95 +32 +32 очень
душно
1013.3 1007.2 5
08 24.05 СВ 1 н/о н/о +24.2 +23.2 94 +32 +32 очень
душно
1013.3 1007.2
07 24.05 СЗ 2 н/о н/о +24.1 +23.2 95 +32 +32 очень
душно
1013.5 1007.4
09 24.05 СЗ 2 н/о н/о +24.1 +23.2 95 +32 +32 очень
душно
1013.0 1006.9 8
10 24.05 С 1 н/о н/о +23.8 +22.2 91 +31 +31 очень
душно
1011.9 1005.8
11 24.05 С 1 н/о н/о +23.9 +22.3 91 +31 +31 очень
душно
1011.9 1005.8
12 24.05 С 1 н/о н/о +24.5 +23.1 92 +33 +33 очень
душно
1011.2 1005.1 +27.1 +27.1 8
14 24.05 С 1 н/о н/о +24.1 +23.1 94 +32 +32 очень
душно
1011.1 1005.0
13 24.05 СЗ 1 н/о н/о +24.3 +23.1 93 +32 +32 очень
душно
1010.9 1004.8
15 24.05 СЗ 1 н/о н/о +24.2 +23.3 95 +32 +32 очень
душно
1011.4 1005.3
16 24.05 СВ 1
{4}
40 км 5/5 700 м
[Cu hum]
+24.9 +23.9 94 +34 +34 очень
душно
1011.9 1005.8
17 24.05 СЗ 2
{3}
40 км 3/3 700 м
[Cu Sc]
+28.2 +24.6 81 +40 +42 очень
душно
1012.9 1006.9
18 24.05 В 2 н/о н/о +29.9 +24.1 71 +41 +41 опасность
перегрева
1013.7 1007.7
20 24.05 В 3
{12}
4000 м в посл. час ливневой дождь 9/9 540 м
[Cu Sc]
+28.5 +24.9 81 +41 +42 опасность
перегрева
1013.2 1007.2 0.4
19 24.05 В 4
{8}
19 км осадки на расстоянии 1/1 630 м
[Cu med, cong]
+29.8 +24.4 73 +42 +49 опасность
перегрева
1013.5 1007.5

 

Местоположение метеостанции Atuona (Французская Полинезия): широта -9.80 долгота -139.00 высота над уровнем моря 53 м.

В архиве по умолчанию представлена погода в Atuona за последнюю неделю. Архивные данные за месяц целиком и за предыдущие месяцы, начиная с января 2011 года, Вы можете получить, выбрав интересующий диапазон дат из раскрывающегося списка и нажав кнопку "Ввод!".

Внимание! Время в таблицах - всемирное. Для получения местного времени необходимо прибавить поправку, которая в Atuona равна -10 ч.

Смотрите также архив погоды в соседних городах и на ближайших метеорологических станциях:

Погода в Takaroa (Французская Полинезия) (834 км)
Погода в Hao (Французская Полинезия) (941 км)
Погода в Hereheretue (Французская Полинезия) (1295 км)
Погода в Tahiti-Faaa (Французская Полинезия) (1433 км)
Погода в Rikitea (Французская Полинезия) (1545 км)
Погода в Bora-Bora Airport (Французская Полинезия) (1560 км)
Погода в Tubuai (Французская Полинезия) (1869 км)
Погода в Pitcairn Island C (Питкерн) (1942 км)
Погода в Rapa (Французская Полинезия) (2057 км)
Погода в Penrhyn (Кука Острова) (2086 км)

Пояснения к столбцам:

Ветер - указаны скорость ветра в м/с - средняя за 10 мин, порывы в срок и между сроками (в фигурных скобках) и направление, откуда дует ветер: С - северный, СВ - северо-восточный, В - восточный, ЮВ - юго-восточный, Ю - южный, ЮЗ - юго-западный, З - западный, СЗ - северо-западный.
Видимость - горизонтальная дальность видимости в метрах или километрах. При видимости от 1 до 10 км при отсутствии осадков обычно наблюдается дымка, при ухудшении видимости до 1 км и менее - туман. В сухую погоду видимость может ухудшаться дымом, пылью или мглою.
Явления - указаны атмосферные явления, наблюдавшиеся в срок или в последний час перед сроком; фигурными скобками обозначены явления, наблюдавшиеся между сроками (за 1-3 часа до срока); квадратными скобками обозначены град или гололедные отложения с указанием их диаметра в мм.
Облачность - указаны через наклонную черту общая и нижняя облачность в баллах и высота нижней границы облаков в метрах; квадратными скобками обозначены формы облаков: Ci - перистые, Cs - перисто-слоистые, Cc - перисто-кучевые, Ac - высококучевые, As - высокослоистые, Sc - слоисто-кучевые, Ns - слоисто-дождевые, Cu - кучевые, Cb - кучево-дождевые. Подробнее классификацию облаков см. в Атласе облаков (PDF).
T - Температура воздуха - температура, измеренная на высоте 2 м над землей.
Td - Температура точки росы - температура, при понижении до которой содержащийся в воздухе водяной пар достигнет насыщения.
f - Относительная влажность воздуха - влажноcть воздуха, измеренная на высоте 2 м над землей.
Te - Эффективная температура - температура, которую ощущает одетый по сезону человек в тени. Характеристика душности погоды. При расчете учитывается влияние влажности воздуха и скорости ветра на теплоощущения человека.
Tes - Эффективная температура на солнце - температура, которую ощущает человек, с поправкой на солнечный нагрев. Характеристика знойности погоды. Зависит от высоты солнца над горизонтом, облачности и скорости ветра. Ночью, в пасмурную погоду, а также при ветре 12 м/с и более поправка равна нулю.
P - Атмосферное давление - приведенное к уровню моря атмосферное давление.
Po - Атмосферное давление - измеренное на уровне метеостанции атмосферное давление.
Tmin - Минимальная температура - минимум температуры воздуха на высоте 2 м над землей.
Tmax - Максимальная температура - максимум температуры воздуха на высоте 2 м над землей.
R - Количество осадков - Количество выпавших осадков за период времени, мм. При наведении курсора мыши на число - период времени, за который выпало указанное количество осадков.
R24 - Количество осадков - Количество выпавших осадков за 24 часа, мм.
S - Снежный покров - Высота снежного покрова, см. При наведении курсора мыши на число - состояние снежного покрова и степень покрытия местности в баллах.